(512307) = 2016 HC21

Discovered at Kitt Peak on 2006-08-27 by Spacewatch.

Orbit

Orbit type: Main Belt

Note: WebGL enabled browser required.

epoch2023-02-25.0
epoch JD2460000.5
perihelion date2020-01-06.59470
perihelion JD2458855.09470
argument of perihelion (°)316.67071
ascending node (°)280.18135
inclination (°)1.39367
eccentricity0.1518130
perihelion distance (AU)1.9743445
Tisserand w.r.t. Jupiter3.6
ΔV w.r.t. Earth (km/sec)8.7
semimajor axis (AU)2.3277231
mean anomaly (°)317.88209
mean daily motion (°/day)0.27752810
aphelion distance (AU)2.681
period (years)3.55
P-vector [x]-0.54660284
P-vector [y]-0.76150091
P-vector [z]-0.34834135
Q-vector [x]0.83704974
Q-vector [y]-0.50875402
Q-vector [z]-0.20128854
absolute magnitude17.83
phase slope0.15
uncertainty0
referenceMPO 745323
observations used245
oppositions14
arc length (days)8645
first opposition used1999
last opposition used2023
residual rms (arc-secs)0.70
perturbers coarse indicatorM-v
perturbers precise indicator003Ek
first observation date used1999-10-09.0
last observation date used2023-06-10.0
computer nameMPCLINUX
JD of orbit computation2458131.562895
perihelion JD uncertainty (days)4.0179E-05
argument of perihelion uncertainty (°)1.6350E-04
ascending node uncertainty (°)1.6310E-04
inclination uncertainty (°)2.3297E-06
eccentricity uncertainty 3.4003E-08
perihelion distance uncertainty (AU)8.0845E-08
Minimum Orbit Intersection Distances (in AU)
for orbit epoch: 2460000.5, reference: E2023-L52
Mercury1.5124
Venus1.25038
Earth0.96284
Mars0.408
Jupiter2.31603
Saturn6.41736
Uranus16.1828
Neptune27.2064

Observations

249 total observations over interval: 1999 10 09.21360 – 2023 06 10.238371
These data are available for download (format description).

Date (UT) J2000 RA J2000 Dec Magn Location Ref
1999 10 09.21360 23 21 58.02 -01 42 00.4 21.1 V 691 – Steward Observatory, Kitt Peak-Spacewatch MPS 835724
1999 10 09.23538 23 21 57.14 -01 42 06.7 21.3 V 691 – Steward Observatory, Kitt Peak-Spacewatch MPS 835724
1999 10 09.25698 23 21 56.21 -01 42 12.5 21.0 V 691 – Steward Observatory, Kitt Peak-Spacewatch MPS 835724
2005 03 09.25635 09 57 55.68 +10 14 09.6 19.4 R G96 – Mt. Lemmon Survey MPS 835724
2005 03 09.26402 09 57 55.34 +10 14 11.1 19.4 R G96 – Mt. Lemmon Survey MPS 835724
2005 03 09.27168 09 57 54.89 +10 14 13.2 19.6 R G96 – Mt. Lemmon Survey MPS 835724
2005 03 09.27934 09 57 54.49 +10 14 15.5 19.9 R G96 – Mt. Lemmon Survey MPS 835724
2006 08 27.29878 22 58 09.52 -04 20 04.9 21.1 V 691 – Steward Observatory, Kitt Peak-Spacewatch MPS 835724
2006 08 27.31613 22 58 08.51 -04 20 10.7 21.6 V 691 – Steward Observatory, Kitt Peak-Spacewatch MPS 835724
2006 08 27.33348 22 58 07.47 -04 20 16.3 21.0 V 691 – Steward Observatory, Kitt Peak-Spacewatch MPS 835724
2006 09 27.26167 22 31 23.84 -07 00 53.5 21.0 V G96 – Mt. Lemmon Survey MPS 835724
2006 09 27.26884 22 31 23.59 -07 00 55.0 21.1 V G96 – Mt. Lemmon Survey MPS 835724
2006 09 27.27616 22 31 23.26 -07 00 57.1 21.4 V G96 – Mt. Lemmon Survey MPS 835724
2006 09 27.28340 22 31 23.01 -07 00 58.6 21.4 V G96 – Mt. Lemmon Survey MPS 835724
2009 04 23.42759 16 10 41.66 -23 08 32.2 20.8 V G96 – Mt. Lemmon Survey MPS 835724
2009 04 23.43254 16 10 41.55 -23 08 31.3 20.2 V G96 – Mt. Lemmon Survey MPS 835724
2009 04 23.43756 16 10 41.37 -23 08 31.3 20.0 V G96 – Mt. Lemmon Survey MPS 835724
2009 04 23.44254 16 10 41.26 -23 08 30.1 19.9 V G96 – Mt. Lemmon Survey MPS 835724
2010 11 07.25720 01 46 37.41 +13 08 48.4 21.1 V G96 – Mt. Lemmon Survey MPS 835724
2010 11 07.26355 01 46 37.05 +13 08 46.6 21.1 V G96 – Mt. Lemmon Survey MPS 835724
2010 11 07.27005 01 46 36.69 +13 08 44.3 20.7 V G96 – Mt. Lemmon Survey MPS 835724
2010 11 07.27645 01 46 36.33 +13 08 42.5 21.5 V G96 – Mt. Lemmon Survey MPS 835724
2012 02 04.50763 09 17 51.444 +14 14 54.25 20.8 i F51 – Pan-STARRS 1, Haleakala MPS 835724
2012 02 04.58830 09 17 46.144 +14 15 14.30 20.3 r F51 – Pan-STARRS 1, Haleakala MPS 835724
2012 02 04.59913 09 17 45.443 +14 15 17.11 20.2 r F51 – Pan-STARRS 1, Haleakala MPS 835724
2012 02 11.31674 09 10 33.63 +14 43 51.2 20.6 V G96 – Mt. Lemmon Survey MPS 835724
2012 02 11.32477 09 10 33.06 +14 43 53.4 20.6 V G96 – Mt. Lemmon Survey MPS 835724
2012 02 11.33292 09 10 32.48 +14 43 55.4 19.9 V G96 – Mt. Lemmon Survey MPS 835724
2012 02 11.34104 09 10 31.98 +14 43 57.1 20.3 V G96 – Mt. Lemmon Survey MPS 835724
2013 08 12.46435 22 03 47.820 -10 00 05.62 20.8 w F51 – Pan-STARRS 1, Haleakala MPS 835724
2013 08 12.47936 22 03 46.920 -10 00 09.66 20.3 w F51 – Pan-STARRS 1, Haleakala MPS 835724
2013 08 12.49432 22 03 46.014 -10 00 13.87 20.2 w F51 – Pan-STARRS 1, Haleakala MPS 835724
2013 08 30.33858 21 46 38.558 -11 23 56.45 21.1 w F51 – Pan-STARRS 1, Haleakala MPS 835724
2013 08 30.35259 21 46 37.774 -11 24 00.21 21.3 w F51 – Pan-STARRS 1, Haleakala MPS 835724
2013 08 30.36659 21 46 36.995 -11 24 03.88 20.7 w F51 – Pan-STARRS 1, Haleakala MPS 835724
2014 11 29.33540 05 07 08.15 +23 52 11.7 20.5 V G96 – Mt. Lemmon Survey MPS 835724
2014 11 29.34158 05 07 07.73 +23 52 10.9 20.7 V G96 – Mt. Lemmon Survey MPS 835724
2014 11 29.34776 05 07 07.32 +23 52 09.9 20.4 V G96 – Mt. Lemmon Survey MPS 835724
2014 11 29.35394 05 07 06.91 +23 52 09.3 20.4 V G96 – Mt. Lemmon Survey MPS 835724
2014 12 10.33771 04 54 43.88 +23 30 20.6 20.5 V G96 – Mt. Lemmon Survey MPS 835724
2014 12 10.34280 04 54 43.53 +23 30 20.0 20.8 V G96 – Mt. Lemmon Survey MPS 835724
2014 12 10.34790 04 54 43.19 +23 30 18.8 20.6 V G96 – Mt. Lemmon Survey MPS 835724
2014 12 10.35299 04 54 42.81 +23 30 18.5 20.7 V G96 – Mt. Lemmon Survey MPS 835724
2016 03 03.59176 14 32 27.195 -17 12 49.79 20.6 r F51 – Pan-STARRS 1, Haleakala MPS 835724
2016 03 03.60316 14 32 27.504 -17 12 52.11 20.5 r F51 – Pan-STARRS 1, Haleakala MPS 835724
2016 03 03.61417 14 32 27.798 -17 12 54.11 20.4 r F51 – Pan-STARRS 1, Haleakala MPS 835724
2016 03 03.62541 14 32 28.119 -17 12 56.40 20.4 r F51 – Pan-STARRS 1, Haleakala MPS 835724
2016 03 10.54248 14 35 13.999 -17 32 05.25 20.9 w F51 – Pan-STARRS 1, Haleakala MPS 835724
2016 03 10.55441 14 35 14.180 -17 32 06.98 21.2 w F51 – Pan-STARRS 1, Haleakala MPS 835724
2016 03 10.56633 14 35 14.357 -17 32 08.34 21.6 w F51 – Pan-STARRS 1, Haleakala MPS 835724
2016 03 10.57824 14 35 14.517 -17 32 10.40 21.2 w F51 – Pan-STARRS 1, Haleakala MPS 835724
2016 04 05.32010 14 31 25.38 -17 32 46.6 20.4 r G45 – Space Surveillance Telescope, Atom Site MPS 719688
2016 04 05.32465 14 31 25.18 -17 32 46.2 20.1 r G45 – Space Surveillance Telescope, Atom Site MPS 719688
2016 04 05.33358 14 31 24.87 -17 32 45.4 20.4 r G45 – Space Surveillance Telescope, Atom Site MPS 719688
2016 04 05.33799 14 31 24.71 -17 32 44.8 20.0 r G45 – Space Surveillance Telescope, Atom Site MPS 719688
2016 04 12.45228 14 26 38.820 -17 12 14.81 19.7 w F51 – Pan-STARRS 1, Haleakala MPS 835724
2016 04 12.46392 14 26 38.255 -17 12 12.43 19.6 w F51 – Pan-STARRS 1, Haleakala MPS 835724
2016 04 12.47557 14 26 37.684 -17 12 10.06 19.5 w F51 – Pan-STARRS 1, Haleakala MPS 835724
2016 04 12.48721 14 26 37.116 -17 12 07.65 19.5 w F51 – Pan-STARRS 1, Haleakala MPS 835724
2016 04 27.26693 14 13 50.65 -16 07 03.3 20.0 r G45 – Space Surveillance Telescope, Atom Site MPS 710022
2016 04 27.27596 14 13 50.13 -16 07 00.3 20.3 r G45 – Space Surveillance Telescope, Atom Site MPS 710022
2016 04 27.28040 14 13 49.84 -16 06 59.1 19.5 r G45 – Space Surveillance Telescope, Atom Site MPS 710022
2016 04 27.28482 14 13 49.62 -16 06 57.3 19.6 r G45 – Space Surveillance Telescope, Atom Site MPS 710022
2016 04 27.40637 14 13 42.58 -16 06 19.9 20.2 r G45 – Space Surveillance Telescope, Atom Site MPS 710022
2016 04 27.41705 14 13 41.92 -16 06 17.0 19.5 r G45 – Space Surveillance Telescope, Atom Site MPS 710022
2016 04 30.35502 14 11 01.00 -15 51 03.0 19.2 V G96 – Mt. Lemmon Survey MPS 706181
2016 04 30.36012 14 11 00.70 -15 51 01.3 19.2 V G96 – Mt. Lemmon Survey MPS 706181
2016 04 30.36523 14 11 00.41 -15 50 59.6 19.2 V G96 – Mt. Lemmon Survey MPS 706181
2016 04 30.37037 14 11 00.11 -15 50 58.1 19.3 V G96 – Mt. Lemmon Survey MPS 706181
2016 04 30.41069 14 10 58.193 -15 50 44.28 19.7 w F51 – Pan-STARRS 1, Haleakala MPS 835724
2016 04 30.42328 14 10 57.462 -15 50 40.26 20.2 w F51 – Pan-STARRS 1, Haleakala MPS 835724
2016 04 30.43591 14 10 56.729 -15 50 36.29 20.0 w F51 – Pan-STARRS 1, Haleakala MPS 835724
2016 05 01.21504 14 10 14.34 -15 46 23.0 19.8 V W84 – Cerro Tololo-DECam MPS 785710
2016 05 01.21825 14 10 14.16 -15 46 22.0   W84 – Cerro Tololo-DECam MPS 785710
2016 05 01.22147 14 10 13.97 -15 46 20.9   W84 – Cerro Tololo-DECam MPS 785710
2016 05 01.22465 14 10 13.79 -15 46 19.9   W84 – Cerro Tololo-DECam MPS 785710
2016 05 02.29429 14 09 16.25 -15 40 50.1 20.7 V G96 – Mt. Lemmon Survey MPS 706181
2016 05 02.29885 14 09 15.97 -15 40 48.9 20.3 V G96 – Mt. Lemmon Survey MPS 706181
2016 05 02.30343 14 09 15.70 -15 40 47.4 20.1 V G96 – Mt. Lemmon Survey MPS 706181
2016 05 02.30799 14 09 15.45 -15 40 46.0 20.0 V G96 – Mt. Lemmon Survey MPS 706181
2016 05 03.24419 14 08 25.30 -15 35 39.8 20.1 V W84 – Cerro Tololo-DECam MPS 785710
2016 05 03.24738 14 08 25.12 -15 35 38.8   W84 – Cerro Tololo-DECam MPS 785710
2016 05 03.25056 14 08 24.94 -15 35 37.8   W84 – Cerro Tololo-DECam MPS 785710
2016 05 03.25376 14 08 24.76 -15 35 36.7   W84 – Cerro Tololo-DECam MPS 785710
2016 05 03.25695 14 08 24.59 -15 35 35.7   W84 – Cerro Tololo-DECam MPS 785710
2016 05 04.11972 14 07 39.43 -15 31 02.1 19.6 V W84 – Cerro Tololo-DECam MPS 785710
2016 05 04.12294 14 07 39.25 -15 31 01.1   W84 – Cerro Tololo-DECam MPS 785710
2016 05 04.12611 14 07 39.07 -15 31 00.1   W84 – Cerro Tololo-DECam MPS 785710
2016 05 04.12927 14 07 38.89 -15 30 59.1   W84 – Cerro Tololo-DECam MPS 785710
2016 05 04.13245 14 07 38.72 -15 30 58.1   W84 – Cerro Tololo-DECam MPS 785710
2016 05 07.24306 14 04 59.10 -15 14 43.9 19.6 r G45 – Space Surveillance Telescope, Atom Site MPS 710022
2016 05 07.24757 14 04 58.84 -15 14 42.9 19.9 r G45 – Space Surveillance Telescope, Atom Site MPS 710022
